Regional Weather Roundup
Issued by NWS

Home | Current Version | Previous Version | Graphics & Text | Print | Product List | Glossary On
Versions: 1 2 3 4 5 6 7 8 9 10 11 12 13 14 15 16 17 18 19 20 21 22 23 24 25 26 27 28 29 30 31 32 33 34 35 36 37 38 39 40 41 42 43 44 45 46 47 48 49 50
000
ASUS45 KBOU 260907
RWRCO

WEATHER ROUNDUP FOR COLORADO
NATIONAL WEATHER SERVICE DENVER/BOULDER CO
300 AM MDT TUE SEP 26 2017

NOTE: "FAIR" INDICATES FEW OR NO CLOUDS BELOW 12000 FEET WITH NO
SIGNIFICANT WEATHER AND/OR OBSTRUCTIONS TO VISIBILITY.

COZ001>005-013-030-031-261000-
...NORTHWEST COLORADO...

CITY           SKY/WX    TMP DP  RH WIND       PRES   REMARKS
CRAIG          FAIR      25  22  88 CALM      30.19S
HAYDEN         FAIR      34  27  75 E8        30.19  WCI  27
MEEKER         FAIR      33  27  78 E5        30.17S WCI  29
RABBIT EARS PA FAIR      28  21  74 W10       30.24F WCI  19
STEAMBOAT SPGS FAIR      29  26  88 CALM      30.19S
WALDEN         FAIR      27  21  80 CALM      30.23R
$$

COZ006>008-011-261000-
...WEST CENTRAL VALLEYS...

CITY           SKY/WX    TMP DP  RH WIND       PRES   REMARKS
GRAND JUNCTION FAIR      46  30  53 N3        30.08S
MONTROSE       FAIR      39  30  70 SE10      30.14S
EAGLE          FAIR      32  26  78 E5        30.21S WCI  27
RIFLE          FAIR      37  32  82 E6        30.14S
DELTA          FAIR      45  31  59 E3        30.12R
NUCLA          FAIR      41  30  65 SE7       30.13S
$$

COZ017>023-064>068-261000-
...SOUTHWEST COLORADO...

CITY           SKY/WX    TMP DP  RH WIND       PRES   REMARKS
DURANGO        FAIR      33  23  66 N3        30.10S
CORTEZ         FAIR      32  28  85 NE6       30.08S WCI  26
PAGOSA SPRINGS FAIR      32  19  57 CALM      30.16S
TELLURIDE      FAIR      32  20  62 E3        30.19F
WOLF CREEK PAS FAIR      30  -8  19 S10       30.33S WCI  21
$$

COZ009-010-012-014-032>034-037-058>063-261000-
...CENTRAL COLORADO...

CITY           SKY/WX    TMP DP  RH WIND       PRES   REMARKS
ASPEN          FAIR      30  24  78 SW5       30.18S WCI  25
BUENA VISTA    CLOUDY    42  32  68 CALM      30.19F
COPPER MTN     FAIR      32  18  55 MISG      30.28F
BERTHOUD PASS  FAIR      21  12  68 W15       30.28F WCI   8
COTTONWOOD PAS CLOUDY    39  36  87 CALM      30.24F
GUNNISON       FAIR      26  16  65 CALM      30.19F
KREMMLING      FAIR      32  25  74 CALM      30.22F
LEADVILLE      CLOUDY    29  22  75 NE3       30.22F
MONARCH PASS   FOG       27  27 100 CALM      30.39S VSB 1/4
SALIDA         CLOUDY    40  37  90 CALM      30.25F
SUNLIGHT       FAIR      28  21  74 E6        30.28F WCI  22
WILKERSON PASS CLOUDY   N/A N/A N/A SW3       30.31S FOG
$$

COZ069>075-261000-
...SAN LUIS VALLEY/SANGRE DE CRISTO MOUNTAINS...

CITY           SKY/WX    TMP DP  RH WIND       PRES   REMARKS
ALAMOSA        FAIR      28  26  92 W6        30.15S WCI  22
DEL NORTE      FAIR      30  16  56 SW6       30.18R WCI  24
LA VETA PASS   FOG       34  34 100 NE9       30.35F VSB<1/4 WCI  26
SAGUACHE       FAIR      32  21  64 N8        30.17S WCI  25
$$

COZ035-036-038>040-261000-
...NORTHERN COLORADO FRONT RANGE...

CITY           SKY/WX    TMP DP  RH WIND       PRES   REMARKS
DENVER INTL AP CLOUDY    44  42  93 SE8       30.15F
DMNS CITY PARK   N/A     45  44  98 E8        30.15S
AURORA         CLOUDY    43  43 100 SW3       30.16F
FRONT RANGE AP CLOUDY    45  43  93 SE7       30.16F
ERIE MUNI ARPT CLOUDY    45  43  91 CALM      30.21S
BOULDER MUN AP MOCLDY    45  45 100 CALM      30.15F
CENTENNIAL     CLOUDY    45  44  97 NW5       30.15F
BROOMFIELD     CLOUDY    46  43  87 N3        30.17R
FORT COLLINS   CLOUDY    46  43  89 E6        30.17F
LONGMONT       CLOUDY    49  45  84 E3        30.18S
$$

COZ041-046-047-076>085-087-088-261000-
...PIKES PEAK/PALMER DIVIDE AND SOUTHERN FOOTHILLS...

CITY           SKY/WX    TMP DP  RH WIND       PRES   REMARKS
COLO. SPRINGS  FOG       46  45  96 SE7       30.17F VSB 1/4
A. F. ACADEMY  CLOUDY    45  45 100 S5        30.16S
SCHRIEVER AFB    N/A     43  43 100 MISG      30.17S FOG
CHEYENNE MTN   LGT RAIN  42  42  98 SE7       30.12F VSB 1/8
ELLICOTT       CLOUDY   N/A N/A N/A SE3       30.16S
FALCON         LGT RAIN  43  42  97 S5        30.18F
FORT CARSON    CLOUDY    46  46 100 SE9       30.15F
LIMON            N/A    N/A N/A N/A MISG      30.16F
MONUMENT HILL  FAIR      37  36  93 S6        30.19S
CANON CITY     NOT AVBL
WALSENBURG     NOT AVBL
TRINIDAD       FOG       47  47 100 E5        30.16R VSB 1/4
$$

COZ042>045-048>051-090-091-261000-
...NORTHEAST COLORADO...

CITY           SKY/WX    TMP DP  RH WIND       PRES   REMARKS
GREELEY ARPT   FAIR      43  42  97 NE3       30.17F
AKRON          FAIR      39  37  92 SW6       30.15F
BURLINGTON     CLOUDY    46  46 100 N7        30.14F FOG
WRAY           CLOUDY    46  46 100 CALM      30.15S
YUMA           FAIR      43  43 100 CALM      30.15R
STERLING       FAIR      39  37  93 N3        30.13F
HOLYOKE        CLOUDY    48  45  87 CALM      30.15S
FORT MORGAN    FAIR      38  36  93 CALM      30.17S
$$

COZ086-089-092>099-261000-
...SOUTHEAST COLORADO...

CITY           SKY/WX    TMP DP  RH WIND       PRES   REMARKS
PUEBLO         CLOUDY    50  47  89 SE13      30.14S
LA JUNTA       CLOUDY    50  47  89 NE7       30.15S
LAMAR          CLOUDY    50  47  89 N3        30.13S
SPRINGFIELD      N/A     47  47 100 NE7       30.14S
$$



USA.gov is the U.S. government's official web portal to all federal, state and local government web resources and services.